Location: Fredericksburg
(30.2750°N, 98.8720°W)
Time: 20:58:43
(UTC-05:00)

ISS - All Passes

Search period start: 26 March 2015 00:00
Search period end: 05 April 2015 00:00
Orbit: 396 x 406 km, 51.6° (Epoch: 26 March)

Date Brightness Start Highest point End Pass type
(mag) Time Alt. Az. Time Alt. Az. Time Alt. Az.
26 Mar - 01:35:29 10° WNW 01:37:24 14° NW 01:39:15 10° N night (unlit)
26 Mar - 08:05:55 10° NNW 08:08:56 36° NE 08:11:57 10° ESE daylight
26 Mar - 09:43:42 10° W 09:45:07 12° SW 09:46:23 10° SSW daylight
26 Mar - 23:05:25 10° S 23:07:38 17° SE 23:09:55 10° E night (unlit)
27 Mar - 00:41:04 10° W 00:43:54 27° NW 00:46:43 10° NNE night (unlit)
27 Mar - 07:13:11 10° N 07:15:29 18° NE 07:17:51 10° E daylight
27 Mar - 08:49:07 10° WNW 08:51:55 27° SW 08:54:42 10° S daylight
27 Mar - 23:47:17 10° SW 23:50:31 61° NW 23:53:43 10° NE night (unlit)
28 Mar - 06:21:40 10° NNE 06:21:53 10° NNE 06:22:13 10° NE visible
28 Mar - 07:55:27 10° NW 07:58:40 71° SW 08:01:51 10° SE daylight
28 Mar - 22:54:01 10° SSW 22:57:10 51° SE 23:00:21 10° NE night (unlit)
29 Mar - 00:32:16 10° WNW 00:33:49 13° NNW 00:35:17 10° N night (unlit)
29 Mar - 07:02:12 10° NNW 07:05:18 44° NE 07:08:23 10° ESE visible
29 Mar - 22:01:22 10° S 22:03:53 21° SE 22:06:27 10° ENE night (unlit)
29 Mar - 23:37:31 10° W 23:40:13 23° NW 23:42:52 10° NNE night (unlit)
30 Mar - 06:09:15 10° NNW 06:11:47 21° NE 06:14:20 10° E visible
30 Mar - 07:45:31 10° WNW 07:48:09 23° SW 07:50:43 10° S daylight
30 Mar - 22:43:31 10° WSW 22:46:41 50° NW 22:49:52 10° NNE night (unlit)
31 Mar - 05:16:59 10° NNE 05:18:07 12° NNE 05:19:22 10° NE visible
31 Mar - 06:51:39 10° NW 06:54:49 57° SW 06:57:57 10° SSE visible
31 Mar - 21:50:02 10° SW 21:53:15 64° SE 21:56:29 10° NE visible
31 Mar - 23:28:56 10° NW 23:29:58 11° NNW 23:30:55 10° NNW night (unlit)
01 Apr - 05:58:12 10° NW 06:01:22 54° NE 06:04:32 10° ESE visible
01 Apr - 20:57:08 10° S 20:59:51 25° SE 21:02:38 10° ENE visible
01 Apr - 22:33:44 10° W 22:36:15 20° NW 22:38:43 10° NNE visible
02 Apr - 05:05:05 10° NNW 05:07:48 24° NE 05:10:31 10° E visible
02 Apr - 06:41:42 10° W 06:44:05 19° SW 06:46:25 10° S visible
02 Apr - 20:05:33 10° SE 20:06:28 11° SE 20:07:33 10° ESE daylight
02 Apr - 21:39:31 10° WSW 21:42:37 41° NW 21:45:43 10° NNE visible
03 Apr - 04:12:29 10° N 04:14:04 13° NE 04:15:45 10° ENE night (unlit)
03 Apr - 05:47:35 10° WNW 05:50:41 45° SW 05:53:45 10° SSE visible
03 Apr - 20:45:49 10° SW 20:49:04 79° SE 20:52:19 10° NE visible
04 Apr - 04:53:58 10° NW 04:57:10 67° NE 05:00:22 10° SE night (unlit)
04 Apr - 19:52:41 10° SSW 19:55:35 30° SE 19:58:30 10° ENE daylight
04 Apr - 21:29:42 10° W 21:32:01 18° NW 21:34:17 10° N visible
